When you browse on this site, cookies collect data to enhance your experience and personalize the content and advertising you see.
Visit our Privacy Policy to learn more. By continuing to use the site, you agree to this use of cookies and data.
  • In Austria
  • List of Countries
  • For 7 days
  • Water Temperature
  • Satellite Maps
  • Weather Map
  • News
  • Weather Widgets
  • user-avatar
    Login

    Hourly Weather Yeghegnadzor

    Today, 22 April, Monday

    Time Temperature Precipitation Wind Pressure Humidity
    00:00 +3°C° 0 mm 3 mps 649 mmHg 66%
    01:00 +3°C° 0 mm 3 mps 649 mmHg 67%
    02:00 +2°C° 0 mm 3 mps 649 mmHg 68%
    03:00 +2°C° 0 mm 3 mps 648 mmHg 68%
    04:00 +1°C° 0 mm 3 mps 648 mmHg 68%
    05:00 +1°C° 0 mm 3 mps 648 mmHg 67%
    06:00 +1°C° 0 mm 3 mps 648 mmHg 66%
    07:00 +3°C° 0 mm 3 mps 649 mmHg 63%
    08:00 +5°C° 0 mm 2 mps 649 mmHg 59%
    09:00 +6°C° 0 mm 2 mps 649 mmHg 56%
    10:00 +6°C° 0.2 mm 2 mps 649 mmHg 57%
    11:00 +6°C° 0.2 mm 2 mps 649 mmHg 58%
    12:00 +6°C° 0.2 mm 2 mps 649 mmHg 60%
    13:00 +6°C° 0.3 mm 2 mps 649 mmHg 61%
    14:00 +6°C° 0.3 mm 2 mps 649 mmHg 62%
    15:00 +7°C° 0.3 mm 2 mps 648 mmHg 63%
    16:00 +6°C° 0.3 mm 2 mps 649 mmHg 65%
    17:00 +6°C° 0.3 mm 1 mps 649 mmHg 68%
    18:00 +6°C° 0.3 mm 1 mps 649 mmHg 70%
    19:00 +5°C° 0.3 mm 1 mps 650 mmHg 73%
    20:00 +5°C° 0.3 mm 1 mps 650 mmHg 75%
    21:00 +5°C° 0.3 mm 1 mps 651 mmHg 77%
    22:00 +4°C° 0.2 mm 1 mps 651 mmHg 78%
    23:00 +4°C° 0.2 mm 1 mps 651 mmHg 78%

    Tomorrow, 23 April, Tuesday

    Time Temperature Precipitation Wind Pressure Humidity
    00:00 +4°C° 0.2 mm 1 mps 652 mmHg 79%
    01:00 +3°C° 0.1 mm 1 mps 652 mmHg 80%
    02:00 +3°C° 0.1 mm 1 mps 652 mmHg 80%
    03:00 +3°C° 0.1 mm 1 mps 652 mmHg 81%
    04:00 +3°C° 0.1 mm 1 mps 653 mmHg 80%
    05:00 +3°C° 0.1 mm 1 mps 653 mmHg 79%
    06:00 +3°C° 0.1 mm 1 mps 653 mmHg 78%
    07:00 +4°C° 0.1 mm 1 mps 654 mmHg 74%
    08:00 +5°C° 0.1 mm 1 mps 654 mmHg 70%
    09:00 +6°C° 0.1 mm 1 mps 655 mmHg 66%
    10:00 +6°C° 0.1 mm 2 mps 655 mmHg 65%
    11:00 +6°C° 0.1 mm 2 mps 655 mmHg 64%
    12:00 +7°C° 0.1 mm 2 mps 655 mmHg 62%
    13:00 +7°C° 0.2 mm 2 mps 655 mmHg 62%
    14:00 +8°C° 0.2 mm 2 mps 654 mmHg 61%
    15:00 +8°C° 0.2 mm 2 mps 654 mmHg 61%
    16:00 +7°C° 0.1 mm 2 mps 654 mmHg 62%
    17:00 +8°C° 0.1 mm 1 mps 654 mmHg 63%
    18:00 +8°C° 0.1 mm 1 mps 655 mmHg 65%
    19:00 +7°C° 0 mm 1 mps 655 mmHg 67%
    20:00 +6°C° 0 mm 1 mps 655 mmHg 68%
    21:00 +5°C° 0 mm 1 mps 655 mmHg 70%
    22:00 +4°C° 0 mm 1 mps 656 mmHg 70%
    23:00 +3°C° 0 mm 1 mps 656 mmHg 69%

    Day after tomorrow, 24 April, Wednesday

    Time Temperature Precipitation Wind Pressure Humidity
    00:00 +2°C° 0 mm 2 mps 656 mmHg 69%
    01:00 +2°C° 0 mm 2 mps 656 mmHg 68%
    02:00 +1°C° 0 mm 2 mps 656 mmHg 67%
    03:00 +1°C° 0 mm 2 mps 656 mmHg 66%
    04:00 +1°C° 0 mm 2 mps 656 mmHg 65%
    05:00 +3°C° 0 mm 1 mps 656 mmHg 65%
    06:00 +3°C° 0 mm 1 mps 657 mmHg 64%
    07:00 +4°C° 0 mm 1 mps 657 mmHg 61%
    08:00 +6°C° 0 mm 1 mps 657 mmHg 58%
    09:00 +8°C° 0 mm 1 mps 658 mmHg 55%
    10:00 +8°C° 0 mm 1 mps 658 mmHg 54%
    11:00 +8°C° 0 mm 2 mps 657 mmHg 54%
    12:00 +9°C° 0 mm 2 mps 657 mmHg 53%
    13:00 +9°C° 0 mm 2 mps 657 mmHg 53%
    14:00 +10°C° 0 mm 2 mps 656 mmHg 52%
    15:00 +10°C° 0 mm 2 mps 656 mmHg 52%
    16:00 +10°C° 0 mm 2 mps 656 mmHg 53%
    17:00 +9°C° 0 mm 2 mps 655 mmHg 55%
    18:00 +9°C° 0 mm 2 mps 655 mmHg 56%
    19:00 +9°C° 0 mm 1 mps 655 mmHg 59%
    20:00 +8°C° 0 mm 1 mps 655 mmHg 62%
    21:00 +7°C° 0 mm 1 mps 656 mmHg 65%
    22:00 +6°C° 0 mm 1 mps 656 mmHg 66%
    23:00 +6°C° 0 mm 1 mps 656 mmHg 67%

    25 April, Thursday

    Time Temperature Precipitation Wind Pressure Humidity
    00:00 +6°C° 0 mm 1 mps 656 mmHg 67%
    01:00 +5°C° 0 mm 1 mps 656 mmHg 68%
    02:00 +5°C° 0 mm 1 mps 656 mmHg 69%
    03:00 +3°C° 0 mm 2 mps 656 mmHg 70%
    04:00 +3°C° 0 mm 2 mps 656 mmHg 69%
    05:00 +3°C° 0 mm 2 mps 656 mmHg 68%
    06:00 +3°C° 0 mm 2 mps 656 mmHg 67%
    07:00 +5°C° 0 mm 2 mps 656 mmHg 61%
    08:00 +8°C° 0 mm 1 mps 657 mmHg 55%
    09:00 +9°C° 0 mm 1 mps 657 mmHg 49%
    10:00 +10°C° 0 mm 1 mps 657 mmHg 49%
    11:00 +10°C° 0 mm 2 mps 657 mmHg 49%
    12:00 +12°C° 0 mm 2 mps 657 mmHg 49%
    13:00 +12°C° 0 mm 2 mps 656 mmHg 49%
    14:00 +12°C° 0 mm 2 mps 656 mmHg 48%
    15:00 +13°C° 0 mm 2 mps 656 mmHg 48%
    16:00 +12°C° 0 mm 2 mps 656 mmHg 48%
    17:00 +12°C° 0 mm 1 mps 656 mmHg 49%
    18:00 +11°C° 0 mm 1 mps 656 mmHg 49%
    19:00 +9°C° 0 mm 2 mps 656 mmHg 53%
    20:00 +7°C° 0 mm 2 mps 656 mmHg 56%
    21:00 +6°C° 0 mm 2 mps 656 mmHg 60%
    22:00 +6°C° 0 mm 2 mps 656 mmHg 61%
    23:00 +5°C° 0 mm 2 mps 656 mmHg 62%

    26 April, Friday

    Time Temperature Precipitation Wind Pressure Humidity
    00:00 +5°C° 0 mm 2 mps 656 mmHg 63%
    01:00 +4°C° 0 mm 2 mps 656 mmHg 62%
    02:00 +4°C° 0 mm 2 mps 656 mmHg 62%
    03:00 +4°C° 0 mm 2 mps 656 mmHg 62%
    04:00 +4°C° 0 mm 2 mps 656 mmHg 61%
    05:00 +4°C° 0 mm 2 mps 656 mmHg 61%
    06:00 +5°C° 0 mm 2 mps 656 mmHg 60%
    07:00 +6°C° 0 mm 2 mps 656 mmHg 57%
    08:00 +9°C° 0 mm 1 mps 657 mmHg 54%
    09:00 +11°C° 0 mm 1 mps 657 mmHg 51%
    10:00 +12°C° 0 mm 1 mps 657 mmHg 52%
    11:00 +12°C° 0 mm 1 mps 657 mmHg 52%
    12:00 +13°C° 0 mm 1 mps 656 mmHg 53%
    13:00 +13°C° 0.2 mm 1 mps 656 mmHg 53%
    14:00 +13°C° 0.2 mm 1 mps 656 mmHg 53%
    15:00 +13°C° 0.2 mm 1 mps 655 mmHg 54%
    16:00 +13°C° 0.4 mm 1 mps 655 mmHg 55%
    17:00 +13°C° 0.4 mm 1 mps 655 mmHg 56%
    18:00 +12°C° 0.4 mm 1 mps 655 mmHg 57%
    19:00 +11°C° 0.2 mm 1 mps 656 mmHg 61%
    20:00 +11°C° 0.2 mm 1 mps 656 mmHg 64%
    21:00 +10°C° 0.2 mm 1 mps 656 mmHg 68%
    22:00 +9°C° 0.1 mm 1 mps 656 mmHg 70%
    23:00 +9°C° 0.1 mm 1 mps 656 mmHg 71%

    27 April, Saturday

    Time Temperature Precipitation Wind Pressure Humidity
    00:00 +8°C° 0.1 mm 1 mps 656 mmHg 73%
    01:00 +8°C° 0 mm 1 mps 656 mmHg 74%
    02:00 +7°C° 0 mm 1 mps 655 mmHg 74%
    03:00 +7°C° 0 mm 1 mps 655 mmHg 75%
    04:00 +6°C° 0 mm 2 mps 655 mmHg 74%
    05:00 +6°C° 0 mm 2 mps 655 mmHg 73%
    06:00 +6°C° 0 mm 2 mps 656 mmHg 72%
    07:00 +8°C° 0 mm 1 mps 656 mmHg 68%
    08:00 +10°C° 0 mm 1 mps 656 mmHg 64%
    09:00 +12°C° 0 mm 1 mps 656 mmHg 60%
    10:00 +12°C° 0 mm 1 mps 656 mmHg 59%
    11:00 +13°C° 0 mm 2 mps 656 mmHg 57%
    12:00 +14°C° 0 mm 2 mps 656 mmHg 55%
    13:00 +14°C° 0.2 mm 2 mps 655 mmHg 53%
    14:00 +15°C° 0.2 mm 2 mps 655 mmHg 51%
    15:00 +15°C° 0.2 mm 2 mps 655 mmHg 48%
    16:00 +15°C° 0 mm 2 mps 655 mmHg 47%
    17:00 +14°C° 0 mm 1 mps 655 mmHg 46%
    18:00 +14°C° 0 mm 1 mps 654 mmHg 44%
    19:00 +12°C° 0 mm 1 mps 654 mmHg 47%
    20:00 +11°C° 0 mm 1 mps 654 mmHg 49%
    21:00 +9°C° 0 mm 1 mps 654 mmHg 51%
    22:00 +9°C° 0 mm 1 mps 654 mmHg 51%
    23:00 +9°C° 0 mm 1 mps 654 mmHg 51%
    Show more